Hourly Data Report for February 01, 2019

TORONTO INTL A
ONTARIO
Current Station Operator: NAVCAN

43°40'36.000" N
79°37'50.000" W
173.40 m
6158731
71624
YYZ

Download Data

Hourly Data (February 2019)
Hourly Data Report for February 1, 2019
TIME
LST
Temp Definition
°C
Dew Point Definition
°C
Rel Hum Definition
%
Precip. Amount Definition
mm

Wind Dir Definition
10's deg

Wind Spd Definition
km/h
Visibility Definition
km
Stn Press Definition
kPa
Hmdx Definition


Wind Chill Definition


Weather Definition


00:00 -18.6 -24.1 63   26 27 24.1 100.52   -30 Blowing Snow
01:00 -18.8 -24.2 63   27 26 24.1 100.55   -30 Blowing Snow
02:00 -18.8 -24.1 64   27 24 24.1 100.54   -30 Blowing Snow
03:00 -18.8 -24.0 64   27 23 24.1 100.58   -30 LegendNANA
04:00 -18.8 -23.9 65   27 25 24.1 100.57   -30 Clear
05:00 -18.4 -23.5 65   28 25 24.1 100.58   -30 LegendNANA
06:00 -18.4 -23.5 65   28 27 24.1 100.59   -30 LegendNANA
07:00 -17.9 -22.9 66   28 16 24.1 100.61   -27 Mostly Cloudy
08:00 -17.6 -22.7 65   28 13 24.1 100.64   -25 LegendNANA
09:00 -16.9 -22.1 65   28 9 24.1 100.68   -23 LegendNANA
10:00 -14.5 -20.2 62   26 5 24.1 100.72   -18 Mainly Clear
11:00 -12.7 -19.2 59   25 5 24.1 100.73   -16 LegendNANA
12:00 -11.8 -18.9 56   25 15 24.1 100.72   -19 LegendNANA
13:00 -10.9 -18.9 52   22 7 24.1 100.64   -15 Clear
14:00 -10.4 -19.2 49   23 10 24.1 100.62   -16 LegendNANA
15:00 -10.1 -19.7 46   24 13 24.1 100.60   -16 LegendNANA
16:00 -10.1 -20.3 44   24 6 24.1 100.60   -14 Clear
17:00 -11.2 -20.7 46   23 8 24.1 100.62   -16 LegendNANA
18:00 -12.8 -22.0 47   25 13 24.1 100.64   -20 LegendNANA
19:00 -12.7 -20.8 51   26 13 24.1 100.64   -20 Mainly Clear
20:00 -14.3 -21.7 54   26 18 24.1 100.66   -23 LegendNANA
21:00 -15.3 -21.9 58   27 10 24.1 100.62   -22 LegendNANA
22:00 -15.9 -22.2 59   25 13 24.1 100.62   -23 Mainly Clear
23:00 -15.7 -21.8 60   24 10 24.1 100.56   -22 LegendNANA

Notes on Data Quality.

Legend

  • E = Estimated
  • M = Missing
  • NA = Not Available*
  • [empty] = Indicates an unobserved value
Date modified: